Retour au catalogue

APRIZESAT 2

ActifCommunicationsSSO
NORAD 28366·PAYLOAD·🇺🇸 United States

Lancé Jun 29, 2004 depuis Baikonur Cosmodrome

Loading…

Prochains Passages (prochaines 24 heures)

TLE

FraisSource: Space-Track

Époque: Sep 14, 2026, 09:58 UTC

1 28366U 04025A   26257.41557155  .00000074  00000-0  36205-4 0  9992
2 28366  98.1125  58.3968 0105076 341.4380  18.2987 14.38067112164463

Suivez APRIZESAT 2 en temps réel avec AllMySat

Download on the App Store